Temp
42 38 33 35 35 38 37 35 33 34 41 37 35 36 39 41 41 38 38 38 39 42 47 49 49 48 49 49 48 48 48 50 51 52 48 49 51 56 63 63 65 66 65 65
37 33 37 41 41 39 37 34 30 36 40 38 35 36 39 39 40 39 38 38 40 42 44 47 46 46 47 46 46 46 47 48 50 51 52 50 51 56 61 64 64 65 66 66
33 36 42 41 37 37 32 32 30 32 37 37 33 31 35 38 39 40 40 39 41 40 42 44 44 44 46 44 44 44 45 47 50 53 53 51 52 53 59 62 62 63 65 66
35 39 39 35 35 36 33 36 36 35 31 26 33 20 31 33 36 38 37 38 38 39 42 43 44 43 44 44 44 43 44 47 51 56 51 48 49 51 57 62 63 63 63 64
32 34 34 34 35 37 34 38 35 34 30 25 27 21 27 34 31 34 36 37 37 39 41 43 42 43 44 43 41 42 46 47 52 52 49 48 49 53 58 59 58 56 56 57
33 40 38 36 38 38 40 35 34 32 29 19 28 24 20 22 28 33 35 35 37 38 39 43 43 43 42 42 41 40 44 45 48 52 51 50 50 54 55 54 53 53 54 54
32 33 37 39 34 37 36 30 20 19 18 21 30 24 25 33 34 34 33 34 34 36 37 41 40 40 40 39 39 42 43 43 45 46 47 49 53 54 53 52 51 50 50 50
25 24 34 39 35 34 33 33 23 15 17 23 31 23 29 36 37 37 36 35 35 35 37 40 40 40 39 39 39 41 42 42 43 44 44 45 46 47 48 49 49 49 48 47
25 27 36 38 38 38 34 30 36 26 15 19 26 28 34 35 33 34 34 34 32 33 35 39 40 40 39 38 40 40 42 42 42 42 43 43 44 43 43 44 45 45 46 47
34 25 32 36 38 37 34 38 28 27 14 14 24 26 26 30 30 31 30 30 32 33 33 35 36 39 40 39 41 42 42 41 41 42 42 42 42 42 42 42 42 42 44 45
36 31 28 33 31 30 30 30 32 32 29 22 18 25 30 31 32 30 30 32 32 32 32 33 34 36 38 38 39 40 40 41 39 40 41 41 41 42 42 42 42 43 42 43
37 32 22 28 34 37 34 33 34 27 25 26 26 25 36 34 33 32 32 33 32 32 32 33 33 34 35 35 36 36 38 40 41 42 42 42 43 43 42 41 42 42 41 42
37 25 16 25 30 33 30 33 35 34 32 27 22 26 35 34 32 32 30 31 32 30 32 33 33 32 33 34 35 35 36 36 39 40 41 40 41 41 41 42 42 42 41 40
40 30 27 25 28 30 28 30 33 34 25 26 27 26 28 31 30 31 30 31 31 30 32 31 31 32 33 34 34 34 35 35 37 38 38 38 38 39 39 40 40 40 40 39
35 21 28 29 29 29 31 31 31 32 32 28 29 28 32 33 32 32 31 31 32 31 30 31 31 31 31 33 33 34 34 34 35 35 35 35 37 37 38 38 38 38 37 37
32 23 24 20 27 28 28 31 32 33 35 31 29 29 35 36 32 30 32 32 31 31 31 31 32 32 31 32 32 33 32 32 33 32 32 33 34 35 35 36 36 36 35 34
29 24 22 17 24 24 16 27 32 33 34 36 29 35 32 31 33 33 32 33 32 32 32 31 31 31 31 31 32 30 30 31 30 30 30 30 31 32 32 34 34 34 33 33
24 23 17 12 15 10 30 34 35 36 37 37 34 33 37 36 37 35 36 34 33 33 32 32 31 31 31 31 31 30 29 29 29 29 29 29 30 30 30 30 31 32 31 30
31 26 13 12 5 23 31 30 31 31 34 39 39 35 34 33 33 30 34 36 35 34 33 33 33 32 30 30 30 29 28 28 28 27 27 27 28 28 28 28 28 29 29 28
31 29 19 8 9 12 31 33 36 38 29 39 42 35 32 34 28 28 34 34 33 34 33 32 32 31 30 29 30 29 27 26 25 26 26 26 27 27 26 26 27 28 28 29
15 12 14 6 8 18 32 34 37 27 34 36 43 37 34 35 36 35 35 34 35 34 33 33 32 30 29 29 29 27 26 24 26 26 27 26 26 27 26 26 28 28 29 30
18 16 11 6 5 16 35 33 32 38 35 37 40 39 37 34 33 35 35 33 33 33 33 32 29 28 28 29 29 27 24 24 24 24 24 22 22 25 26 23 26 26 30 29
20 23 19 24 25 34 37 35 38 37 38 36 38 39 38 33 33 34 32 33 34 34 32 31 29 28 26 26 27 25 22 22 21 18 16 17 19 22 22 22 25 27 28 28
25 29 23 26 32 32 34 36 36 40 38 37 40 39 37 34 34 33 33 34 33 32 32 29 26 26 24 17 19 17 18 17 11 13 14 17 16 18 18 21 22 27 27 26
26 29 26 23 30 30 33 36 38 38 36 35 37 38 38 35 33 34 33 33 34 33 30 28 26 25 21 17 13 10 12 11 14 13 14 14 15 11 15 18 17 22 27 27
27 25 29 26 34 36 36 37 37 36 35 36 36 34 36 36 34 34 33 34 34 31 27 25 23 21 18 15 12 7 5 7 11 12 13 12 12 10 13 12 14 23 27 29
MSLP
1020.53 1021.23 1022.38 1022.87 1022.87 1022.70 1022.75 1022.97 1023.19 1023.34 1023.37 1023.60 1023.64 1023.91 1024.26 1024.53 1024.78 1025.46 1025.55 1025.28 1025.03 1024.47 1023.57 1022.54 1021.70 1020.90 1019.91 1019.09 1017.94 1016.98 1015.69 1014.68 1013.93 1013.03 1012.61 1012.07 1011.34 1010.69 1010.13 1010.07 1010.24 1010.32 1010.41 1010.86
1021.68 1022.49 1023.12 1023.04 1022.96 1022.94 1023.12 1023.47 1023.76 1023.75 1023.76 1024.03 1024.09 1024.30 1024.68 1024.89 1025.27 1025.74 1025.89 1025.79 1025.29 1024.65 1023.66 1022.61 1021.98 1020.87 1019.77 1018.72 1017.90 1016.80 1015.49 1014.12 1013.12 1012.25 1011.57 1011.48 1010.99 1010.04 1009.44 1009.45 1009.57 1009.79 1009.97 1010.27
1022.60 1023.46 1023.31 1023.26 1023.38 1023.54 1024.14 1024.25 1024.48 1024.64 1024.61 1024.56 1024.75 1024.84 1025.11 1025.36 1025.52 1025.73 1025.87 1025.87 1025.51 1025.01 1023.93 1023.12 1022.12 1021.00 1019.92 1018.86 1017.52 1016.31 1015.06 1013.41 1011.69 1010.31 1010.55 1010.74 1010.78 1010.16 1009.23 1008.88 1009.14 1009.35 1009.54 1009.80
1023.75 1023.84 1023.66 1023.80 1024.05 1024.21 1024.63 1024.79 1025.05 1025.27 1025.53 1025.66 1025.56 1025.83 1025.42 1025.56 1025.87 1026.16 1026.40 1026.19 1026.03 1025.47 1024.69 1023.96 1022.65 1021.47 1020.43 1019.34 1018.19 1016.63 1014.67 1012.55 1010.59 1008.96 1009.77 1010.21 1010.50 1009.92 1009.03 1008.66 1008.81 1009.14 1009.41 1009.80
1024.52 1024.40 1024.26 1024.26 1024.47 1024.55 1025.00 1025.17 1025.58 1025.93 1026.32 1026.74 1026.48 1026.98 1025.62 1026.05 1026.57 1026.71 1026.93 1026.86 1026.56 1026.18 1025.46 1024.23 1023.29 1022.15 1021.00 1019.59 1018.14 1016.70 1014.48 1012.36 1009.56 1009.18 1009.66 1010.02 1010.29 1010.05 1009.06 1008.91 1009.30 1009.51 1009.71 1009.98
1024.89 1024.66 1024.67 1024.75 1024.92 1024.94 1025.23 1025.67 1026.10 1026.58 1027.10 1027.40 1026.62 1027.24 1026.55 1026.97 1027.14 1027.40 1027.53 1027.45 1027.17 1026.73 1025.99 1024.97 1024.04 1022.79 1021.46 1020.02 1018.56 1017.13 1015.06 1013.24 1011.40 1010.00 1009.83 1009.89 1010.14 1010.04 1009.98 1010.34 1010.71 1010.19 1011.10 1011.49
1025.47 1025.20 1024.93 1024.88 1025.20 1025.47 1025.52 1026.00 1026.84 1027.65 1027.77 1027.25 1026.71 1027.16 1026.56 1026.90 1027.26 1027.65 1028.12 1027.94 1027.59 1027.23 1026.52 1025.47 1024.53 1023.43 1022.32 1020.97 1019.73 1017.99 1016.10 1014.75 1013.27 1012.04 1011.14 1010.97 1010.71 1010.97 1011.35 1011.82 1011.40 1010.89 1011.91 1012.08
1025.46 1025.65 1024.99 1024.84 1024.94 1024.94 1025.49 1025.77 1026.24 1027.18 1027.85 1027.34 1026.84 1026.66 1026.29 1026.73 1027.33 1027.61 1028.07 1028.20 1027.91 1027.64 1027.03 1026.19 1025.49 1024.57 1023.65 1022.19 1020.80 1019.14 1017.46 1016.46 1015.21 1014.24 1013.66 1013.15 1013.34 1013.35 1013.60 1014.17 1012.47 1012.42 1013.57 1013.06
1024.60 1025.04 1025.13 1024.94 1025.05 1025.14 1025.28 1025.61 1025.61 1026.51 1027.89 1027.44 1026.32 1026.41 1026.65 1026.97 1027.56 1027.88 1028.21 1028.27 1028.28 1028.22 1027.74 1026.99 1026.26 1025.41 1024.57 1023.54 1022.26 1020.58 1019.28 1017.90 1017.08 1016.42 1015.84 1015.58 1015.39 1015.53 1015.69 1016.67 1014.51 1015.33 1014.83 1015.10
1023.57 1024.81 1025.38 1025.29 1025.23 1025.25 1025.15 1025.29 1025.63 1026.07 1027.04 1027.02 1026.03 1025.94 1025.75 1026.83 1027.44 1028.03 1028.55 1028.57 1028.76 1028.66 1028.35 1027.73 1027.03 1026.25 1025.46 1024.69 1023.58 1021.88 1020.97 1020.02 1019.27 1018.19 1017.99 1017.45 1017.24 1017.32 1017.15 1017.12 1016.89 1016.40 1017.21 1017.02
1023.36 1024.00 1025.88 1025.75 1025.27 1024.83 1025.26 1025.00 1025.12 1025.25 1025.66 1026.04 1026.21 1025.28 1025.10 1026.12 1027.15 1027.93 1028.41 1028.63 1028.98 1029.15 1028.89 1028.52 1027.75 1027.05 1026.29 1025.44 1024.52 1023.49 1022.41 1021.82 1021.15 1020.26 1020.17 1019.73 1019.64 1019.44 1019.57 1019.52 1019.64 1019.41 1019.26 1018.45
1023.26 1024.20 1025.38 1025.17 1024.85 1024.70 1024.53 1024.33 1024.39 1024.69 1025.34 1025.55 1025.84 1024.95 1024.98 1026.07 1027.12 1027.67 1028.34 1028.46 1029.03 1029.30 1029.10 1028.88 1028.29 1027.64 1027.04 1026.29 1025.66 1024.93 1024.01 1023.28 1022.66 1022.14 1021.56 1021.11 1021.03 1020.68 1020.78 1020.63 1020.60 1020.15 1019.63 1019.97
1023.35 1024.33 1025.23 1025.41 1025.44 1024.94 1024.58 1024.05 1023.98 1024.23 1024.52 1024.90 1025.43 1024.79 1025.22 1026.20 1027.20 1027.72 1028.40 1028.28 1028.94 1029.25 1029.23 1029.15 1028.58 1028.09 1027.67 1027.20 1026.67 1026.13 1025.44 1024.73 1024.05 1023.33 1022.73 1022.64 1022.78 1022.50 1021.97 1021.79 1021.33 1021.22 1021.26 1021.31
1023.49 1024.25 1024.62 1024.51 1024.09 1023.95 1024.20 1023.61 1023.54 1023.60 1024.23 1023.93 1023.69 1024.27 1025.43 1026.17 1027.21 1027.69 1028.24 1028.10 1028.79 1029.06 1029.33 1029.37 1028.98 1028.73 1028.19 1027.91 1027.76 1027.20 1026.61 1026.00 1025.34 1024.67 1024.16 1023.85 1023.79 1023.89 1023.59 1023.35 1023.34 1023.14 1022.70 1022.44
1024.26 1025.02 1025.04 1024.79 1024.62 1024.39 1023.90 1023.42 1023.15 1022.88 1022.57 1022.76 1022.42 1023.11 1023.84 1024.81 1026.21 1026.99 1027.73 1027.81 1028.56 1029.00 1029.32 1029.51 1029.48 1029.33 1028.79 1028.36 1028.16 1028.34 1027.98 1027.20 1026.73 1026.22 1025.76 1025.60 1025.33 1024.81 1024.37 1024.05 1023.97 1023.77 1023.33 1023.41
1024.91 1025.61 1026.00 1026.00 1025.47 1024.96 1024.14 1023.25 1022.83 1022.35 1022.30 1022.05 1022.20 1022.56 1022.52 1023.92 1025.68 1026.76 1027.36 1027.44 1028.14 1028.84 1029.26 1029.45 1029.56 1029.57 1029.23 1028.78 1028.54 1028.32 1028.46 1028.41 1027.92 1027.57 1027.31 1026.99 1026.47 1026.02 1025.58 1025.34 1025.12 1024.89 1024.78 1024.61
1025.43 1026.21 1027.16 1027.16 1026.37 1025.43 1024.04 1021.38 1021.04 1020.56 1020.21 1020.34 1021.09 1020.82 1022.47 1023.89 1024.95 1025.83 1026.67 1026.93 1027.57 1028.49 1029.09 1029.33 1029.33 1029.41 1029.53 1029.05 1028.85 1028.86 1028.90 1028.70 1028.24 1028.07 1028.06 1027.77 1027.30 1027.08 1026.84 1026.54 1026.19 1026.03 1026.08 1025.91
1025.62 1026.62 1027.31 1028.17 1027.59 1024.98 1020.67 1019.48 1019.18 1018.95 1018.72 1019.04 1019.28 1020.02 1020.90 1021.84 1023.41 1024.90 1025.70 1026.09 1027.14 1027.99 1028.78 1029.34 1029.40 1029.65 1029.58 1029.52 1029.25 1029.26 1029.21 1029.25 1029.22 1028.94 1028.65 1028.28 1028.06 1027.71 1027.49 1027.23 1027.03 1026.89 1026.79 1026.70
1025.42 1026.35 1028.12 1028.61 1027.68 1023.38 1020.30 1019.45 1018.81 1018.39 1017.17 1017.26 1018.03 1019.48 1020.98 1022.33 1023.78 1025.09 1025.32 1025.68 1026.49 1027.42 1028.51 1029.10 1029.56 1029.75 1029.97 1029.83 1029.68 1029.59 1029.48 1029.60 1029.68 1029.78 1029.75 1029.52 1029.02 1028.63 1028.25 1027.94 1027.75 1027.48 1027.22 1027.02
1025.88 1026.30 1027.27 1028.97 1027.44 1023.57 1019.41 1018.27 1017.80 1017.76 1016.71 1015.09 1016.34 1018.39 1019.99 1021.75 1023.45 1023.50 1024.47 1025.39 1026.44 1027.23 1028.39 1029.07 1029.56 1030.02 1030.26 1030.24 1030.00 1029.90 1030.04 1030.02 1030.31 1030.41 1030.26 1029.97 1029.69 1029.34 1029.05 1028.63 1028.14 1027.88 1027.70 1027.61
1026.49 1026.99 1027.13 1027.52 1025.91 1022.19 1018.48 1018.07 1017.97 1017.51 1015.89 1014.96 1015.69 1017.23 1018.96 1019.98 1020.64 1021.42 1023.63 1025.24 1026.21 1027.03 1028.17 1028.99 1029.39 1029.91 1030.32 1030.36 1030.49 1030.51 1030.67 1030.71 1030.84 1030.87 1030.79 1030.58 1030.26 1029.87 1029.53 1029.16 1028.72 1028.44 1028.32 1028.25
1024.36 1025.47 1026.03 1026.13 1025.02 1021.32 1017.43 1018.18 1017.24 1015.16 1014.94 1015.15 1015.78 1017.08 1018.60 1019.82 1020.90 1021.82 1023.43 1024.94 1026.13 1027.00 1028.08 1028.70 1029.45 1029.78 1030.25 1030.40 1030.81 1031.34 1031.43 1031.39 1031.13 1030.92 1030.98 1030.88 1030.73 1030.51 1030.18 1029.83 1029.38 1029.04 1028.75 1028.43
1022.52 1020.93 1021.48 1020.90 1019.11 1016.92 1016.00 1015.37 1015.24 1015.16 1015.14 1015.64 1016.33 1017.27 1018.34 1019.80 1021.13 1022.21 1023.36 1024.83 1025.82 1026.77 1027.84 1028.40 1029.01 1029.81 1030.49 1030.81 1030.95 1031.66 1031.96 1031.95 1031.48 1031.41 1031.57 1031.48 1031.10 1030.75 1030.48 1030.15 1029.72 1029.41 1029.08 1028.75
1020.10 1019.39 1019.30 1018.89 1016.51 1015.84 1015.44 1015.12 1015.12 1015.28 1015.41 1015.86 1016.45 1017.37 1018.35 1019.54 1021.06 1022.46 1023.34 1024.63 1025.61 1026.58 1027.44 1028.18 1029.17 1029.99 1030.83 1031.57 1031.48 1031.82 1032.17 1032.31 1032.26 1032.25 1032.07 1031.88 1031.75 1031.45 1030.96 1030.62 1030.22 1029.71 1029.44 1029.16
1017.70 1017.88 1017.54 1017.02 1015.65 1015.36 1014.82 1014.48 1014.71 1015.31 1015.58 1016.04 1016.88 1017.48 1018.31 1019.35 1021.09 1022.08 1023.19 1024.24 1025.06 1026.21 1027.19 1028.01 1029.02 1029.66 1030.62 1031.43 1032.14 1032.21 1032.39 1032.57 1032.71 1032.74 1032.57 1032.31 1032.28 1032.19 1031.77 1031.15 1030.57 1030.06 1029.65 1029.23
1015.57 1015.03 1015.09 1013.61 1013.26 1013.28 1013.13 1012.94 1013.87 1014.89 1015.58 1015.95 1016.78 1017.88 1018.59 1019.00 1020.49 1021.92 1022.85 1023.61 1024.47 1025.99 1027.03 1028.00 1028.86 1029.71 1030.52 1031.26 1031.99 1032.35 1032.71 1032.91 1032.88 1033.12 1033.09 1032.97 1032.82 1032.52 1032.35 1031.98 1031.27 1030.45 1029.96 1029.44
Wind_Speed
5 7 4 6 2 2 2 4 3 1 2 2 2 1 4 2 7 8 8 8 8 12 13 16 17 17 19 20 21 20 19 19 14 11 8 8 9 7 8 8 11 10 8 9
8 3 3 1 2 5 4 4 1 2 1 2 2 5 3 3 4 5 6 8 12 14 16 18 21 20 21 24 23 21 21 19 15 11 8 8 5 6 6 6 11 11 10 10
6 3 2 2 4 5 3 3 2 2 4 3 2 4 5 2 2 4 7 6 13 16 19 21 23 21 24 25 25 22 21 21 20 17 9 7 7 6 7 6 7 9 11 11
5 0 3 4 3 1 3 2 2 1 3 2 4 5 4 1 6 6 8 12 13 15 16 19 22 22 24 22 20 23 23 23 19 5 7 6 6 5 4 5 5 8 8 10
2 3 2 2 3 1 3 2 2 1 2 4 1 3 5 3 5 6 10 10 10 13 15 21 21 21 22 22 21 21 20 20 17 5 6 4 5 6 4 1 4 9 10 10
2 1 2 2 2 3 4 3 4 4 2 3 3 5 5 1 3 4 6 8 10 12 13 16 19 20 22 22 22 19 20 21 22 10 1 4 5 4 7 6 7 10 8 8
5 2 1 1 4 3 2 4 3 5 4 5 2 2 5 4 3 3 4 7 8 10 11 15 18 20 22 24 23 19 22 22 23 23 23 23 16 14 12 9 7 12 11 10
6 5 7 4 3 5 5 4 5 7 3 3 3 5 2 5 5 4 3 4 6 10 11 14 15 16 19 22 23 22 22 24 24 23 23 22 22 15 13 12 13 11 11 12
5 1 1 2 1 1 4 4 3 6 2 3 3 1 2 4 2 4 5 6 8 8 10 12 14 14 16 18 21 22 22 25 26 24 21 21 21 22 19 14 13 12 14 12
5 4 1 2 1 2 3 2 3 2 3 4 4 5 5 7 4 4 4 6 7 7 9 10 11 13 13 14 16 20 23 23 23 25 22 20 23 21 19 17 19 19 15 14
4 3 1 2 7 8 3 3 3 2 3 4 1 6 4 7 7 7 5 5 5 6 7 7 9 9 11 12 14 15 14 17 19 19 19 19 18 18 16 13 13 13 14 14
3 5 4 5 2 1 2 5 6 4 5 2 2 6 5 7 7 7 6 6 3 2 5 6 7 7 9 11 12 13 13 14 13 12 13 14 13 13 12 11 11 13 14 13
4 2 3 6 3 1 6 6 4 3 2 6 6 5 4 6 6 7 7 7 3 1 4 6 6 7 8 9 11 11 13 13 12 12 13 13 12 11 12 11 11 11 11 11
3 3 5 7 3 4 5 6 7 5 4 5 7 5 7 9 8 7 7 7 6 2 1 3 5 6 6 8 9 10 12 12 12 12 13 14 14 12 10 9 10 9 10 10
4 5 3 3 2 2 3 4 10 14 6 8 4 11 14 16 13 11 8 8 7 4 1 3 4 5 6 9 9 10 10 12 11 12 13 13 11 10 10 10 9 9 11 10
2 2 2 4 3 3 5 7 9 16 13 8 3 6 5 9 8 8 10 10 8 6 4 4 5 4 5 6 7 8 8 8 7 9 10 10 10 11 11 11 10 10 10 9
6 6 4 6 2 2 7 17 20 9 8 14 14 10 8 7 13 14 12 12 11 8 6 5 5 4 3 4 4 6 6 7 9 9 8 9 9 10 10 9 9 9 8 7
6 5 3 4 2 4 8 2 4 20 8 15 3 10 17 20 14 11 11 13 12 10 8 6 5 3 2 2 5 5 6 6 7 9 9 10 8 8 8 8 8 7 6 8
4 5 2 5 5 8 5 7 9 10 12 21 19 14 10 10 8 2 8 9 11 10 6 5 4 3 2 3 4 5 6 6 7 9 9 8 8 9 8 7 6 5 4 5
3 2 5 3 4 9 5 3 4 6 9 11 23 20 19 18 10 6 13 10 10 11 8 7 6 4 3 2 3 5 5 6 6 5 6 6 6 6 6 6 7 5 5 5
3 1 7 4 5 10 8 6 6 6 7 2 20 21 23 16 5 8 15 10 12 12 10 7 6 6 3 3 3 5 4 6 3 3 4 5 5 5 5 5 4 4 5 6
10 10 5 4 2 13 9 5 10 4 1 5 12 19 20 8 11 19 17 15 15 13 9 8 7 6 4 3 4 4 4 1 3 3 3 3 4 5 5 5 5 5 4 4
6 10 9 13 12 5 13 4 6 2 3 3 15 15 14 15 12 17 16 16 13 13 9 7 8 7 4 2 3 5 1 1 2 4 5 4 4 4 5 4 5 4 5 4
5 5 4 4 9 13 10 6 3 6 4 6 9 15 16 14 18 15 16 14 13 11 11 7 7 7 6 2 3 4 2 0 3 4 3 3 4 4 4 3 2 3 4 4
7 11 9 5 8 4 9 11 8 5 6 8 10 13 13 20 16 17 15 15 13 12 7 7 8 6 7 6 4 2 2 2 4 3 2 3 2 4 4 4 2 2 3 3
8 10 11 11 8 7 5 12 11 11 9 13 15 10 12 19 19 15 15 15 14 10 7 6 6 6 7 7 6 4 1 2 4 3 1 2 1 2 2 3 4 6 6 10
Wind_Direction
5 75 147 154 131 136 167 126 133 220 265 296 253 263 131 45 58 33 8 360 346 339 326 334 339 336 331 335 329 324 314 305 296 281 263 269 256 250 236 209 218 206 193 201
26 106 186 199 93 98 69 122 151 309 346 26 311 281 144 68 77 62 10 359 354 343 339 342 342 337 342 336 335 324 314 304 289 270 250 238 253 259 234 215 212 215 203 205
128 146 140 107 59 98 48 147 167 198 330 261 343 296 164 198 98 46 25 9 3 352 335 344 340 341 345 343 333 328 316 308 299 265 238 238 267 270 259 212 208 210 210 211
85 207 123 103 89 93 155 136 104 16 54 214 92 270 238 350 10 21 7 12 358 344 336 346 339 339 347 345 334 330 321 317 306 232 200 209 246 275 240 233 200 220 221 223
201 124 119 117 136 28 145 118 108 68 70 51 198 74 254 19 353 352 5 0 351 345 344 349 343 344 348 350 346 334 336 341 338 134 173 197 232 266 272 60 112 78 60 45
113 328 51 103 82 69 125 96 52 47 68 16 218 129 281 288 226 347 349 346 353 340 334 352 347 352 355 352 354 341 354 4 13 22 227 231 244 311 84 82 80 74 59 57
357 345 13 134 95 24 88 84 4 354 5 228 131 41 257 143 110 90 351 348 350 337 334 354 357 1 357 360 355 357 12 19 24 31 40 39 47 56 61 58 78 77 62 51
149 290 177 173 205 177 182 174 161 203 200 269 319 245 250 142 111 94 60 9 6 353 345 357 359 3 2 4 5 9 24 29 31 35 38 46 42 44 43 29 56 65 58 64
134 278 44 107 53 144 181 196 158 107 27 45 215 80 257 144 118 70 45 28 21 353 340 351 357 8 9 6 13 20 27 38 35 39 40 44 48 48 41 27 43 47 52 54
208 89 263 161 115 265 192 163 84 0 131 263 270 251 220 190 175 85 46 45 28 349 341 348 347 3 4 14 10 23 37 39 38 44 41 41 45 41 45 33 32 36 32 47
151 109 173 82 204 181 171 210 213 125 165 169 252 256 198 164 167 145 116 79 50 348 340 341 339 355 3 11 9 13 22 40 46 43 44 43 48 48 48 48 38 43 40 28
172 119 170 198 253 257 250 211 181 153 202 218 141 270 142 152 165 143 143 118 86 344 342 335 335 339 12 13 12 11 3 19 28 43 56 50 48 56 53 50 47 35 42 36
164 252 59 343 344 307 219 193 195 124 81 199 147 246 174 137 154 156 154 127 120 42 2 340 360 358 9 14 11 11 12 9 15 27 39 39 33 33 38 34 46 46 47 37
109 178 191 194 178 127 203 195 182 164 159 179 223 161 190 184 179 171 166 141 147 138 358 337 18 359 9 27 20 11 13 11 12 24 32 34 28 22 22 28 36 38 44 49
144 199 214 227 191 241 240 206 191 209 191 183 215 193 196 188 186 183 174 150 148 168 160 59 41 10 9 24 27 23 15 11 10 24 27 19 9 10 19 31 36 42 44 45
151 239 94 300 295 260 268 240 218 226 236 267 208 237 206 157 125 160 174 159 163 173 177 116 86 46 31 38 33 25 18 19 20 28 25 13 16 16 20 21 26 32 38 38
158 140 133 258 354 6 304 220 213 199 203 208 211 201 152 151 172 180 180 169 169 166 172 166 129 107 69 73 77 52 19 356 19 30 33 22 17 20 16 13 21 31 33 37
147 137 104 208 25 273 239 110 201 215 220 210 141 159 176 175 176 170 186 165 163 159 165 171 155 126 65 38 60 68 43 30 22 24 17 14 14 22 17 22 23 27 21 24
181 133 139 153 207 297 264 199 175 175 250 210 203 169 153 117 99 225 191 169 159 150 160 159 149 128 114 87 93 81 62 48 34 20 18 10 6 5 8 17 5 10 47 48
184 61 129 111 182 218 247 181 158 138 281 202 187 165 150 145 167 210 180 150 141 137 145 150 140 118 95 32 83 75 63 63 46 17 4 356 358 12 6 355 358 3 24 32
131 16 189 196 232 286 236 174 163 121 241 201 181 165 160 171 185 151 146 138 147 144 150 150 136 129 150 166 132 97 90 68 43 14 10 12 3 1 1 350 6 6 32 22
163 168 179 106 141 260 168 94 179 205 70 177 159 163 161 124 124 141 144 143 147 146 151 145 144 154 170 163 119 98 74 22 56 70 57 12 359 2 4 360 8 16 20 14
213 185 182 184 202 220 197 183 207 159 129 141 152 161 144 133 141 148 144 148 151 152 160 160 159 150 148 136 123 120 171 252 100 68 39 17 7 9 358 4 16 10 4 353
237 177 210 125 228 225 211 226 215 207 149 143 159 155 148 140 148 148 144 148 153 162 167 159 151 153 162 82 82 121 161 219 84 75 39 21 25 355 1 1 2 358 358 343
182 152 177 268 272 318 251 225 190 185 142 130 149 158 150 141 152 154 153 157 162 169 162 158 170 164 154 158 151 196 187 146 111 83 53 23 16 7 352 343 301 330 330 304
189 172 184 217 182 177 229 202 175 170 174 160 154 143 154 151 152 158 162 165 162 164 154 159 164 144 165 156 172 195 194 160 134 119 94 43 7 360 2 359 343 339 341 348